• In Hungary
  • List of Countries
  • For 7 days
  • Water Temperature
  • Satellite Maps
  • Weather Map
  • News
  • Weather Widgets
  • user-avatar
    Login

    Hourly Weather Sant Feliu de Llobregat

    Today, 24 September, Monday

    Time Temperature Precipitation Wind Pressure Humidity
    00:00 +27°C° 0 mm 1 mps 761 mmHg 70%
    01:00 +27°C° 0 mm 1 mps 760 mmHg 71%
    02:00 +26°C° 0 mm 1 mps 760 mmHg 72%
    03:00 +26°C° 0 mm 1 mps 760 mmHg 73%
    04:00 +26°C° 0.1 mm 2 mps 760 mmHg 74%
    05:00 +25°C° 0.1 mm 2 mps 761 mmHg 75%
    06:00 +25°C° 0.1 mm 2 mps 761 mmHg 76%
    07:00 +26°C° 0.1 mm 3 mps 761 mmHg 72%
    08:00 +28°C° 0.1 mm 3 mps 761 mmHg 69%
    09:00 +29°C° 0.1 mm 3 mps 761 mmHg 66%
    10:00 +29°C° 0.1 mm 3 mps 761 mmHg 66%
    11:00 +29°C° 0.1 mm 4 mps 761 mmHg 66%
    12:00 +29°C° 0.1 mm 4 mps 761 mmHg 66%
    13:00 +29°C° 0.1 mm 4 mps 761 mmHg 67%
    14:00 +29°C° 0.1 mm 4 mps 760 mmHg 67%
    15:00 +29°C° 0.1 mm 5 mps 760 mmHg 67%
    16:00 +28°C° 0.2 mm 5 mps 760 mmHg 70%
    17:00 +27°C° 0.2 mm 5 mps 761 mmHg 73%
    18:00 +26°C° 0.2 mm 5 mps 761 mmHg 76%
    19:00 +25°C° 0.1 mm 5 mps 762 mmHg 75%
    20:00 +25°C° 0.1 mm 5 mps 762 mmHg 74%
    21:00 +25°C° 0.1 mm 5 mps 763 mmHg 72%
    22:00 +23°C° 0.1 mm 5 mps 763 mmHg 71%
    23:00 +22°C° 0.1 mm 5 mps 763 mmHg 70%

    Tomorrow, 25 September, Tuesday

    Time Temperature Precipitation Wind Pressure Humidity
    00:00 +22°C° 0.1 mm 5 mps 763 mmHg 69%
    01:00 +21°C° 0 mm 4 mps 763 mmHg 68%
    02:00 +21°C° 0 mm 4 mps 763 mmHg 68%
    03:00 +21°C° 0 mm 4 mps 763 mmHg 68%
    04:00 +20°C° 0 mm 4 mps 763 mmHg 68%
    05:00 +20°C° 0 mm 4 mps 763 mmHg 69%
    06:00 +20°C° 0 mm 4 mps 763 mmHg 69%
    07:00 +21°C° 0 mm 4 mps 764 mmHg 63%
    08:00 +22°C° 0 mm 4 mps 764 mmHg 56%
    09:00 +25°C° 0 mm 5 mps 764 mmHg 49%
    10:00 +26°C° 0 mm 5 mps 764 mmHg 47%
    11:00 +27°C° 0 mm 6 mps 764 mmHg 44%
    12:00 +27°C° 0 mm 6 mps 764 mmHg 41%
    13:00 +27°C° 0 mm 6 mps 764 mmHg 44%
    14:00 +27°C° 0 mm 7 mps 764 mmHg 47%
    15:00 +27°C° 0 mm 7 mps 764 mmHg 50%
    16:00 +26°C° 0 mm 7 mps 764 mmHg 55%
    17:00 +23°C° 0 mm 7 mps 764 mmHg 59%
    18:00 +22°C° 0 mm 7 mps 764 mmHg 64%
    19:00 +22°C° 0 mm 7 mps 765 mmHg 66%
    20:00 +21°C° 0 mm 7 mps 765 mmHg 69%
    21:00 +21°C° 0 mm 7 mps 766 mmHg 71%
    22:00 +20°C° 0 mm 7 mps 766 mmHg 72%
    23:00 +20°C° 0 mm 7 mps 766 mmHg 73%

    Day after tomorrow, 26 September, Wednesday

    Time Temperature Precipitation Wind Pressure Humidity
    00:00 +20°C° 0 mm 6 mps 766 mmHg 74%
    01:00 +20°C° 0 mm 6 mps 766 mmHg 74%
    02:00 +20°C° 0 mm 7 mps 766 mmHg 74%
    03:00 +18°C° 0 mm 7 mps 766 mmHg 73%
    04:00 +18°C° 0 mm 7 mps 766 mmHg 74%
    05:00 +18°C° 0 mm 7 mps 766 mmHg 74%
    06:00 +18°C° 0 mm 7 mps 766 mmHg 74%
    07:00 +20°C° 0 mm 8 mps 766 mmHg 69%
    08:00 +22°C° 0 mm 8 mps 767 mmHg 64%
    09:00 +23°C° 0 mm 8 mps 767 mmHg 60%
    10:00 +24°C° 0 mm 8 mps 767 mmHg 55%
    11:00 +26°C° 0 mm 8 mps 767 mmHg 50%
    12:00 +27°C° 0 mm 8 mps 767 mmHg 46%
    13:00 +27°C° 0 mm 8 mps 767 mmHg 45%
    14:00 +27°C° 0 mm 8 mps 767 mmHg 45%
    15:00 +27°C° 0 mm 7 mps 766 mmHg 44%
    16:00 +24°C° 0 mm 7 mps 767 mmHg 50%
    17:00 +23°C° 0 mm 6 mps 767 mmHg 55%
    18:00 +22°C° 0 mm 6 mps 767 mmHg 61%
    19:00 +21°C° 0 mm 5 mps 767 mmHg 64%
    20:00 +21°C° 0 mm 5 mps 768 mmHg 66%
    21:00 +20°C° 0 mm 4 mps 768 mmHg 69%
    22:00 +20°C° 0 mm 4 mps 768 mmHg 69%
    23:00 +19°C° 0 mm 4 mps 768 mmHg 69%

    27 September, Thursday

    Time Temperature Precipitation Wind Pressure Humidity
    00:00 +19°C° 0 mm 4 mps 768 mmHg 69%
    01:00 +19°C° 0 mm 4 mps 768 mmHg 68%
    02:00 +19°C° 0 mm 4 mps 767 mmHg 67%
    03:00 +19°C° 0 mm 4 mps 767 mmHg 66%
    04:00 +19°C° 0 mm 3 mps 767 mmHg 66%
    05:00 +18°C° 0 mm 3 mps 767 mmHg 66%
    06:00 +18°C° 0 mm 3 mps 767 mmHg 66%
    07:00 +20°C° 0 mm 3 mps 767 mmHg 63%
    08:00 +23°C° 0 mm 2 mps 767 mmHg 60%
    09:00 +25°C° 0 mm 2 mps 767 mmHg 56%
    10:00 +26°C° 0 mm 2 mps 767 mmHg 51%
    11:00 +28°C° 0 mm 2 mps 767 mmHg 47%
    12:00 +29°C° 0 mm 2 mps 767 mmHg 42%
    13:00 +29°C° 0 mm 2 mps 766 mmHg 42%
    14:00 +29°C° 0 mm 2 mps 766 mmHg 42%
    15:00 +30°C° 0 mm 3 mps 765 mmHg 43%
    16:00 +28°C° 0 mm 2 mps 765 mmHg 50%
    17:00 +26°C° 0 mm 2 mps 765 mmHg 58%
    18:00 +25°C° 0 mm 2 mps 765 mmHg 66%
    19:00 +24°C° 0 mm 2 mps 765 mmHg 69%
    20:00 +24°C° 0 mm 1 mps 765 mmHg 73%
    21:00 +23°C° 0 mm 1 mps 765 mmHg 76%
    22:00 +23°C° 0 mm 1 mps 764 mmHg 77%
    23:00 +22°C° 0 mm 1 mps 764 mmHg 77%

    28 September, Friday

    Time Temperature Precipitation Wind Pressure Humidity
    00:00 +22°C° 0 mm 1 mps 764 mmHg 77%
    01:00 +21°C° 0 mm 2 mps 763 mmHg 76%
    02:00 +21°C° 0 mm 2 mps 763 mmHg 75%
    03:00 +20°C° 0 mm 2 mps 762 mmHg 74%
    04:00 +20°C° 0 mm 2 mps 762 mmHg 73%
    05:00 +20°C° 0 mm 2 mps 762 mmHg 71%
    06:00 +20°C° 0 mm 2 mps 762 mmHg 69%
    07:00 +23°C° 0 mm 1 mps 762 mmHg 61%
    08:00 +25°C° 0 mm 1 mps 762 mmHg 54%
    09:00 +27°C° 0 mm 1 mps 762 mmHg 46%
    10:00 +28°C° 0 mm 2 mps 761 mmHg 43%
    11:00 +30°C° 0 mm 2 mps 761 mmHg 39%
    12:00 +31°C° 0 mm 3 mps 761 mmHg 35%
    13:00 +31°C° 0 mm 3 mps 760 mmHg 35%
    14:00 +31°C° 0 mm 3 mps 759 mmHg 35%
    15:00 +32°C° 0 mm 4 mps 759 mmHg 35%
    16:00 +30°C° 0 mm 3 mps 759 mmHg 42%
    17:00 +28°C° 0 mm 3 mps 758 mmHg 48%
    18:00 +27°C° 0 mm 3 mps 758 mmHg 55%
    19:00 +26°C° 0 mm 3 mps 759 mmHg 59%
    20:00 +25°C° 0 mm 3 mps 759 mmHg 62%
    21:00 +25°C° 0 mm 3 mps 759 mmHg 66%
    22:00 +24°C° 0 mm 3 mps 758 mmHg 67%
    23:00 +24°C° 0 mm 3 mps 758 mmHg 69%

    29 September, Saturday

    Time Temperature Precipitation Wind Pressure Humidity
    00:00 +24°C° 0 mm 3 mps 758 mmHg 70%
    01:00 +23°C° 0 mm 2 mps 758 mmHg 69%
    02:00 +23°C° 0 mm 2 mps 758 mmHg 68%
    03:00 +23°C° 0 mm 2 mps 757 mmHg 68%
    04:00 +23°C° 0 mm 2 mps 757 mmHg 66%
    05:00 +23°C° 0 mm 2 mps 757 mmHg 65%
    06:00 +22°C° 0 mm 1 mps 757 mmHg 64%
    07:00 +24°C° 0 mm 1 mps 758 mmHg 57%
    08:00 +26°C° 0 mm 1 mps 758 mmHg 51%
    09:00 +28°C° 0 mm 1 mps 758 mmHg 44%
    10:00 +29°C° 0 mm 1 mps 758 mmHg 41%
    11:00 +30°C° 0 mm 2 mps 757 mmHg 39%
    12:00 +31°C° 0 mm 3 mps 757 mmHg 36%
    13:00 +31°C° 0 mm 3 mps 757 mmHg 37%
    14:00 +32°C° 0 mm 4 mps 757 mmHg 37%
    15:00 +32°C° 0 mm 4 mps 756 mmHg 38%
    16:00 +30°C° 0 mm 4 mps 757 mmHg 45%
    17:00 +28°C° 0 mm 4 mps 757 mmHg 52%
    18:00 +27°C° 0 mm 3 mps 757 mmHg 59%
    19:00 +26°C° 0 mm 3 mps 757 mmHg 64%
    20:00 +25°C° 0 mm 3 mps 758 mmHg 68%
    21:00 +25°C° 0 mm 2 mps 758 mmHg 73%
    22:00 +24°C° 0 mm 2 mps 758 mmHg 74%
    23:00 +24°C° 0 mm 2 mps 758 mmHg 75%
    Show more